Location: Sternwarte Hubelmatt
(47.0367°N, 8.3053°E)
Time: 14:42:14
(UTC+01:00)

BlueWalker 3 - Pass Details

Date: 26 January 2026
Orbit: 451 x 461 km, 53.2° (Epoch: 13 February)

Event Time Altitude Azimuth Distance (km) Brightness Sun altitude
Rises 20:15:13 0° 284° (WNW) 2,456 6.6 -29.7°
Reaches altitude 10° 20:17:32 10° 296° (WNW) 1,583 5.3 -30.1°
Enters shadow 20:18:21 15° 304° (WNW) 1,308 4.7 -30.2°
